CAPE
1743 1371 1375 1623 1936 806 2388 900 2933 2244 1671 1709 2026 1785 1954 2130 1771 2716 1842 2409 3040 2146
1938 1530 1555 1945 1617 1264 2320 1381 1754 1589 1652 1702 1759 1920 1884 1704 1988 1594 2263 1839 2265 2292
1633 1818 1624 1729 1856 1485 1245 1496 1612 1596 1961 1802 1705 1956 2141 2111 2392 1811 1368 953 2592 2077
1040 1262 1948 1468 1371 1618 1595 1556 1513 1676 1766 1586 1731 1980 1925 2862 2282 2057 1972 2025 2155 1921
965 1046 1141 1692 1367 2540 1642 1628 1680 1826 1877 1726 1539 1750 2102 1840 1590 1974 1567 1613 2042 1595
894 924 1080 1892 1416 2165 2564 2262 1232 1683 1831 1735 1684 1925 1916 2070 1767 1989 1915 1590 2325 1541
1146 1042 941 1450 1648 1537 2243 2091 1963 1924 2395 2427 1849 1727 1672 2188 2382 2188 1482 1649 1896 2025
2652 2340 2343 2579 2501 2025 2184 2117 2039 2055 2450 2487 1987 1583 2409 2044 1983 2404 1713 2045 1835 1612
1728 2145 2380 2417 2507 2660 2293 2396 2291 1947 2052 1782 1504 664 596 806 1826 2466 2446 1610 1962 2353
1810 2076 2014 2330 2650 2567 2301 2518 2416 1835 1698 2119 2244 789 472 372 843 941 1535 1844 2385 1868
1421 1615 1765 1840 1854 2551 2919 2994 1278 2342 2048 2255 1535 845 705 523 576 1165 1363 1408 1390 1676
1393 1047 1211 1900 1941 1709 2603 2422 1693 1436 1416 1602 1349 730 668 413 340 655 1244 1076 896 756
714 958 837 733 938 1320 1798 1877 1455 911 898 374 396 340 247 50 75 455 1077 452 350 330
420 335 444 524 504 545 447 517 424 291 185 95 40 18 43 35 37 122 508 201 36 26
CIN
-0 -0 -0 -4 -24 -5 -11 -0 -7 -0 -0 -0 -0 -0 -0 -0 -0 -0 -1 -0 -0 -1
-0 -0 -0 -4 -4 -0 -1 -23 -4 -0 -0 -0 -0 -0 -0 -0 -0 -2 -0 -0 -0 -2
-0 -0 -0 -0 -1 -1 -0 -2 -12 -14 -0 -0 -0 -0 -0 -0 -0 -0 -0 -0 -0 -0
-0 -0 -0 -0 -0 -0 -0 -0 -0 -0 -0 -0 -0 -0 -1 -0 -7 -4 -0 -0 -1 -0
-0 -0 -0 -0 -0 -2 -3 -0 -0 -0 -0 -0 -0 -0 -0 -0 -0 -1 -0 -0 -0 -0
-0 -0 -0 -1 -0 -3 -3 -0 -0 -0 -0 -0 -0 -0 -0 -0 -0 -0 -0 -0 -0 -0
-0 -0 -0 -0 -0 -0 -0 -0 -0 -0 -0 -0 -0 -0 -0 -0 -0 -0 -0 -0 -0 -2
-0 -0 -0 -0 -0 -0 -0 -0 -0 -0 -0 -0 -0 -0 -1 -0 -0 -0 -0 -0 -0 -0
-1 -0 -0 -0 -0 -0 -0 -0 -0 -0 -0 -0 -0 -2 -4 -10 -0 -0 -0 -0 -0 -0
-0 -0 -0 -0 -0 -0 -0 -0 -0 -0 -0 -0 -0 -9 -22 -25 -5 -0 -0 -0 -0 -0
-0 -0 -0 -0 -0 -0 -0 -0 -14 -0 -0 -0 -4 -2 -10 -24 -35 -2 -0 -0 -0 -0
-0 -5 -2 -0 -0 -4 -0 -0 -0 -22 -6 -0 -7 -4 -7 -28 -39 -0 -0 -0 -0 -1
-2 -0 -0 -1 -3 -6 -0 -0 -0 -6 -3 -7 -0 -4 -47 -32 -82 -0 -0 -1 -9 -1
-2 -7 -5 -4 -1 -4 -14 -0 -0 -1 -2 -4 -16 -15 -5 -13 -23 -53 -4 -2 -18 -53
Wind_Speed
7 11 11 4 12 7 12 8 9 4 9 9 10 10 10 11 9 8 9 8 9 10
10 7 7 15 6 8 10 13 9 6 5 5 5 7 8 6 7 9 9 7 8 6
6 5 8 12 11 14 12 10 11 12 8 6 5 5 7 8 7 9 9 7 7 10
8 7 8 10 9 8 9 10 9 8 7 6 7 6 12 9 13 9 9 7 10 7
11 9 8 8 6 10 8 7 8 7 7 7 6 7 6 4 6 7 8 6 5 4
13 13 13 14 8 12 15 10 8 10 10 8 8 9 8 8 6 7 7 7 8 8
16 16 14 14 13 11 14 13 10 11 10 11 10 9 8 10 9 9 8 9 10 13
21 18 17 16 17 16 15 16 13 14 16 13 13 11 14 13 13 11 12 12 14 14
27 23 22 21 20 19 17 17 17 16 17 16 16 29 31 22 18 16 17 14 15 18
26 25 24 22 21 20 20 22 22 19 19 20 20 32 31 28 21 18 19 19 21 20
32 29 29 28 24 23 24 24 27 26 23 23 28 37 38 35 25 22 20 22 24 24
33 36 41 34 30 32 30 30 31 36 27 26 33 37 42 37 29 27 25 29 36 35
39 42 42 43 39 40 41 35 39 41 42 37 43 42 44 nan nan 33 37 44 41 51
49 44 51 47 46 44 43 44 45 47 44 nan nan nan nan nan nan 41 37 40 nan nan
Wind_Direction
168 179 172 181 186 181 188 181 255 187 155 162 184 192 198 198 207 243 231 229 211 203
197 173 182 175 189 184 189 207 242 224 178 172 186 203 198 196 220 213 244 230 254 235
226 199 184 215 182 181 190 166 217 180 207 206 203 220 244 200 250 234 229 244 239 255
221 237 222 206 194 197 189 194 187 190 196 225 194 226 217 207 205 254 234 229 213 216
207 217 250 253 233 224 222 203 201 218 231 217 233 227 254 219 212 254 232 208 227 219
227 219 207 233 230 238 254 240 236 226 219 229 237 250 243 253 235 232 244 260 264 266
219 219 218 221 219 231 243 243 231 256 246 240 244 251 252 276 287 272 266 266 270 275
238 231 230 229 228 225 225 240 236 237 253 255 266 275 283 268 262 264 269 254 269 283
231 232 231 232 230 236 240 243 241 242 243 246 238 254 263 260 265 263 255 260 267 266
235 233 235 238 242 248 251 249 247 236 243 251 255 262 254 253 257 251 263 269 267 271
241 244 241 237 236 244 251 255 254 255 249 249 251 266 265 261 259 259 254 257 264 272
231 241 241 243 240 243 251 257 259 253 246 247 262 267 269 260 261 266 264 263 263 257
237 239 238 233 241 250 252 257 258 263 267 259 261 259 262 nan nan 263 264 265 263 255
237 234 241 238 240 248 244 256 258 262 262 nan nan nan nan nan nan 259 255 258 nan nan